Location: Newark
(5.5500°N, 0.2500°W)
Time: 21:07:49
(UTC+00:00)

LightSail 2 - Pass Details

Date: 18 September 2019
Orbit: 707 x 722 km, 24.0° (Epoch: 18 October)

Event Time Altitude Azimuth Distance (km) Brightness Sun altitude
Exits shadow 04:05:41 41° 5° (N) 1,011 5.9 -27.0°
Drops below altitude 10° 04:09:41 10° 50° (NE) 2,158 8.3 -26.1°
Sets 04:12:13 0° 56° (NE) 3,077 9.4 -25.4°
